DW6157 Weather Reports


Display with metric or nautical units.
time (UTC)temp
F
wind
direction
speed
MPH
gust
MPH
rain 1hr
in
rain 24hr
in
rain mn
in
humidity
%
barometer
mb
20260905220015 54 331 0.0 1.0 0.00 0.49 0.00 90 1009.6
20260905214514 54 332 0.0 6.0 0.00 0.49 0.49 92 1009.5
20260905213010 53 283 0.0 3.0 0.00 0.49 0.49 93 1009.2
20260905211523 53 285 0.0 3.0 0.00 0.49 0.49 95 1008.9
20260905210010 52 303 0.0 0.0 0.00 0.49 0.49 95 1008.6
20260905204505 52 291 0.0 0.0 0.00 0.49 0.49 94 1008.4
20260905203002 52 291 0.0 0.0 0.00 0.49 0.49 94 1008.2
20260905201559 52 291 0.0 0.0 0.00 0.49 0.49 94 1008.0
20260905194556 53 291 0.0 0.0 0.00 0.49 0.49 94 1007.5
20260905193053 53 291 0.0 0.0 0.00 0.49 0.49 93 1007.4
20260905191557 54 291 0.0 0.0 0.00 0.49 0.49 93 1007.1
20260905190050 55 291 0.0 0.0 0.00 0.49 0.49 93 1007.0
20260905184557 55 291 0.0 0.0 0.00 0.49 0.49 93 1006.8
20260905183047 56 291 0.0 0.0 0.00 0.49 0.49 92 1006.5
20260905181544 57 291 0.0 0.0 0.00 0.49 0.49 91 1006.3
20260905180047 58 291 0.0 0.0 0.00 0.49 0.49 91 1006.0
20260905174539 58 291 0.0 0.0 0.00 0.49 0.49 90 1005.7
20260905173054 60 291 0.0 0.0 0.00 0.49 0.49 88 1005.4
20260905171535 61 291 0.0 0.0 0.00 0.49 0.49 86 1005.1
20260905170033 62 291 0.0 0.0 0.00 0.49 0.49 83 1005.0
20260905164532 64 291 0.0 0.0 0.00 0.49 0.49 81 1004.7
20260905163028 64 291 0.0 0.0 0.00 0.49 0.49 81 1004.5
20260905161526 64 290 0.0 0.0 0.00 0.49 0.49 81 1004.3
20260905160024 64 313 0.0 0.0 0.00 0.49 0.49 83 1004.0
20260905154522 63 314 0.0 0.0 0.00 0.49 0.49 85 1003.9
20260905153021 62 329 0.0 0.0 0.00 0.49 0.49 87 1003.6
20260905151521 60 314 0.0 0.0 0.00 0.49 0.49 88 1003.4
20260905150015 60 316 0.0 0.0 0.00 0.49 0.49 92 1003.1
20260905144522 58 326 0.0 3.0 0.00 0.49 0.49 94 1003.0
20260905143012 57 316 0.0 1.0 0.00 0.49 0.49 94 1002.8
20260905141511 56 339 0.0 3.0 0.03 0.49 0.49 94 1002.6
20260905140009 56 302 0.0 0.0 0.04 0.49 0.49 94 1002.4
20260905134508 56 302 0.0 0.0 0.05 0.49 0.49 94 1002.4
20260905133008 56 335 0.0 0.0 0.05 0.49 0.49 94 1002.3
20260905131508 56 339 0.0 0.0 0.04 0.46 0.46 94 1002.4
20260905130005 56 340 0.0 0.0 0.05 0.45 0.45 94 1002.2
20260905124504 56 349 0.0 0.0 0.12 0.44 0.44 94 1002.0
20260905123000 55 349 0.0 0.0 0.28 0.43 0.43 93 1001.8
20260905121559 55 65 0.0 0.0 0.28 0.42 0.42 93 1001.7
20260905120100 54 68 0.0 0.0 0.27 0.40 0.40 90 1001.3
20260905114601 55 28 0.0 12.0 0.19 0.32 0.32 84 1001.1
20260905113054 57 47 1.0 4.0 0.03 0.14 0.14 90 1000.9
20260905111551 59 2 0.0 0.0 0.03 0.13 0.13 90 1000.6
20260905110049 59 357 0.0 0.0 0.03 0.13 0.13 89 1000.4
20260905104547 59 32 0.0 0.0 0.03 0.13 0.13 87 1000.1
20260905103045 60 43 0.0 4.0 0.01 0.11 0.11 83 1000.0
20260905101555 62 158 0.0 5.0 0.00 0.10 0.10 85 999.8
20260905100114 63 99 0.0 7.0 0.00 0.10 0.10 83 999.7
20260905094547 63 135 0.0 7.0 0.00 0.10 0.10 87 999.6
20260905093035 61 109 0.0 4.0 0.00 0.10 0.10 87 999.6
20260905091540 59 58 1.0 5.0 0.00 0.10 0.10 88 999.6
20260905090032 60 36 0.0 8.0 0.00 0.10 0.10 88 999.5
20260905084528 59 70 1.0 5.0 0.00 0.10 0.10 90 999.4
20260905083025 58 77 0.0 0.0 0.00 0.10 0.10 91 999.3
20260905081524 57 73 0.0 0.0 0.00 0.10 0.10 92 999.2
20260905080024 57 72 0.0 5.0 0.00 0.10 0.10 90 999.2
20260905074525 57 44 0.0 0.0 0.00 0.10 0.10 93 999.1
20260905073019 56 37 0.0 0.0 0.00 0.10 0.10 94 999.0
20260905071517 56 14 0.0 0.0 0.00 0.10 0.10 96 999.0
20260905070014 55 360 0.0 0.0 0.00 0.10 0.10 97 998.9
20260905064621 53 350 0.0 0.0 0.00 0.12 0.10 96 998.8
20260905063009 53 16 0.0 0.0 0.00 0.12 0.10 96 998.6
20260905061507 53 16 0.0 0.0 0.00 0.12 0.10 96 998.5
20260905060005 52 16 0.0 0.0 0.00 0.12 0.10 96 998.4
20260905054509 52 16 0.0 0.0 0.00 0.12 0.10 96 998.3
20260905053002 52 16 0.0 0.0 0.00 0.12 0.10 96 998.3
20260905051503 52 16 0.0 0.0 0.02 0.12 0.10 96 998.2
20260905050100 52 16 0.0 0.0 0.04 0.12 0.10 96 998.0
20260905044608 52 16 0.0 0.0 0.04 0.13 0.10 96 998.0
20260905043103 52 16 0.0 0.0 0.05 0.13 0.10 96 998.0
20260905041557 52 16 0.0 0.0 0.07 0.11 0.08 96 997.9
20260905040107 52 18 0.0 0.0 0.06 0.09 0.06 96 997.9
20260905034602 52 26 0.0 0.0 0.06 0.11 0.06 96 997.8
20260905033055 52 335 0.0 0.0 0.05 0.10 0.05 96 997.8
20260905031555 52 333 0.0 0.0 0.01 0.06 0.01 96 997.8
20260905030053 52 333 0.0 0.0 0.00 0.05 0.00 96 997.8
20260905024559 51 333 0.0 0.0 0.00 0.25 0.00 96 997.7
20260905023050 52 333 0.0 0.0 0.00 0.25 0.00 96 997.5
20260905021549 51 333 0.0 0.0 0.00 0.25 0.00 96 997.4
20260905020054 51 333 0.0 0.0 0.00 0.25 0.00 96 997.4
20260905014547 51 333 0.0 0.0 0.00 0.38 0.00 96 997.3
20260905013045 51 333 0.0 0.0 0.00 0.38 0.00 96 997.1
20260905011544 51 333 0.0 0.0 0.00 0.38 0.00 96 997.0
20260905010044 51 333 0.0 0.0 0.00 0.38 0.00 96 997.0
20260905004544 51 333 0.0 0.0 0.00 0.43 0.00 96 997.0
20260905003043 51 333 0.0 0.0 0.00 0.43 0.00 96 997.1
20260905001541 50 333 0.0 0.0 0.00 0.43 0.00 95 996.9
20260905000040 50 329 0.0 3.0 0.00 0.43 0.00 95 996.7
20260904234539 51 11 0.0 2.0 0.00 0.43 0.00 95 996.6
20260904233036 51 334 0.0 3.0 0.00 0.43 0.00 95 996.5
20260904231549 51 35 0.0 2.0 0.00 0.43 0.00 95 996.5
20260904230034 51 33 1.0 4.0 0.00 0.43 0.00 95 996.5
20260904224533 51 37 0.0 0.0 0.00 0.43 0.00 95 996.5
20260904223031 51 339 0.0 0.0 0.00 0.43 0.00 95 996.4
20260904221535 52 311 0.0 0.0 0.00 0.43 0.00 95 996.4